Wind_Speed
1 4 2 2 3 2 1 2 4 1 2 4 7 10 8 14 16 15 15 14 13 11 8 8 7 6 7 6 5 5 6 9 10 10 10 8 10 10 12 15 18 18 17 16
4 1 3 5 3 1 2 4 2 2 2 4 5 11 8 12 16 17 16 16 15 12 11 9 7 6 6 6 5 4 6 8 9 9 10 9 10 10 12 14 14 17 17 17
4 4 6 2 2 3 3 5 2 4 1 4 7 4 4 6 11 11 17 16 15 15 13 11 9 7 8 6 5 4 5 7 8 9 10 9 10 9 9 13 14 16 17 17
1 3 3 3 2 2 5 2 1 3 4 2 2 2 4 6 7 13 16 20 19 17 15 12 10 10 8 7 6 5 5 6 7 7 8 8 8 8 11 13 15 15 15 16
4 3 3 4 2 1 3 0 2 3 4 4 3 4 5 2 6 12 18 20 20 19 17 14 13 11 9 8 7 6 5 6 6 7 7 8 8 9 11 12 13 14 14 15
3 1 2 3 3 2 7 2 3 3 3 4 3 3 5 5 3 5 12 19 20 20 18 14 12 11 10 10 8 6 6 6 6 6 7 8 9 10 10 12 12 14 13 13
2 2 2 1 3 4 3 3 2 3 3 2 2 4 3 6 5 4 8 17 20 20 18 16 15 13 12 11 9 7 6 6 6 6 6 8 9 10 11 13 13 14 14 13
3 3 2 1 2 3 1 3 3 4 3 3 2 4 2 3 3 7 6 8 19 21 19 17 17 16 15 14 11 8 7 6 5 5 6 7 8 9 10 12 13 14 14 14
2 2 2 3 1 2 4 3 2 1 1 4 2 4 5 5 7 9 11 12 21 22 20 19 18 17 16 15 13 10 9 6 6 5 5 6 8 9 9 11 13 14 15 16
3 2 1 2 1 3 1 2 2 2 3 4 3 5 4 8 13 13 14 19 21 21 20 20 20 19 18 16 14 12 10 8 6 6 5 6 7 8 9 11 12 14 15 16
3 2 3 1 5 2 3 3 1 2 2 3 4 2 1 8 11 14 19 21 22 23 22 22 21 20 19 17 16 13 12 10 8 7 6 6 7 8 9 10 12 13 14 15
4 1 3 1 2 2 3 2 4 2 3 1 2 6 2 3 7 10 13 19 21 22 22 22 22 21 21 20 17 15 14 12 10 9 7 6 7 7 8 9 10 12 12 13
7 3 2 3 3 2 5 4 3 2 1 7 3 3 1 4 7 11 14 15 20 22 23 22 23 24 23 21 19 17 16 14 12 10 9 7 7 7 8 9 10 11 11 12
5 3 5 6 2 3 4 6 9 8 4 4 11 21 10 9 13 16 18 18 20 23 25 25 25 25 24 23 21 20 18 15 13 12 11 9 8 7 8 8 9 10 11 11
3 5 5 8 7 5 7 7 13 13 17 10 17 15 18 13 14 20 21 19 21 23 26 28 29 27 26 25 24 22 20 18 15 13 12 10 9 7 8 8 8 9 10 10
3 2 3 4 1 7 7 13 17 19 17 19 21 27 22 27 22 19 20 21 25 26 29 30 30 29 29 27 26 24 22 19 17 15 13 12 10 9 8 8 9 9 9 10
6 5 4 5 2 2 8 13 15 8 10 10 10 14 7 5 9 14 18 23 27 28 29 32 33 33 31 29 27 25 22 20 19 16 14 13 11 10 9 8 8 9 9 10
6 5 3 3 1 8 3 2 3 11 11 18 19 21 15 12 8 12 14 19 23 26 29 31 32 33 32 29 28 25 24 23 20 18 16 14 12 10 10 9 9 9 10 11
3 4 3 3 6 9 12 5 7 6 5 3 16 17 18 12 12 22 20 20 21 22 24 28 29 30 31 30 29 28 27 25 22 20 18 16 14 12 11 11 12 12 12 13
2 1 3 3 4 5 1 3 4 4 6 3 5 10 5 4 3 2 6 9 22 22 21 24 27 28 30 31 30 30 29 27 25 21 19 18 16 14 13 13 13 14 14 14
4 3 8 9 5 7 7 9 7 3 2 4 6 6 2 5 8 11 9 10 9 18 20 21 26 29 30 31 31 31 30 29 24 21 21 20 18 16 15 15 14 14 15 15
9 9 5 4 5 9 9 8 4 5 7 10 10 14 12 17 18 19 17 14 11 12 19 22 25 29 30 32 32 32 32 27 26 24 23 21 19 18 16 16 15 16 15 15
6 8 5 10 5 4 12 4 10 9 15 15 15 18 21 21 24 20 17 16 14 13 17 21 24 28 32 33 33 32 29 28 26 26 25 22 20 19 18 17 16 16 16 16
6 7 4 2 8 15 15 16 18 16 8 12 20 26 23 23 22 23 21 18 17 17 17 20 23 28 32 32 32 30 29 28 27 27 26 24 23 21 20 19 18 17 16 16
2 8 6 7 13 21 21 11 1 9 18 22 20 15 15 17 24 22 23 24 21 19 20 21 23 26 29 31 31 30 29 28 29 28 27 25 24 23 22 21 20 19 17 16
8 7 6 11 4 5 11 7 22 22 25 19 11 20 25 31 34 31 28 25 25 23 22 23 24 26 27 30 31 30 29 29 29 29 28 27 25 23 23 22 21 20 18 17
Wind_Direction
88 242 299 33 37 12 346 279 283 172 124 254 250 264 232 207 210 212 211 211 214 216 218 240 270 294 312 310 321 320 335 338 349 354 356 3 3 2 1 360 2 3 1 356
208 278 93 104 111 274 263 282 276 161 137 242 272 271 250 217 221 220 217 216 216 213 219 228 247 259 283 274 288 314 325 335 347 354 356 4 5 2 0 3 2 2 2 1
284 87 145 188 165 253 261 279 275 315 192 236 288 249 200 212 221 220 222 221 219 216 219 224 227 236 258 252 270 278 309 328 343 351 357 1 358 357 357 0 2 1 4 2
53 129 195 187 239 251 289 78 282 266 277 334 317 360 193 192 216 215 216 213 215 214 218 220 221 232 239 242 260 268 299 324 333 349 359 359 356 354 354 1 3 3 5 5
84 169 189 232 69 210 35 7 284 266 266 281 159 260 115 207 237 213 211 210 210 212 214 217 220 225 233 239 248 262 293 315 333 342 354 3 354 349 352 354 359 2 6 6
75 79 5 32 87 77 134 205 230 233 241 229 100 322 163 191 177 152 199 204 205 206 210 214 217 224 230 238 243 260 285 311 320 334 348 355 352 350 350 349 355 355 357 357
159 145 111 156 197 141 216 264 266 220 218 3 123 260 301 183 178 186 189 203 202 204 207 212 215 225 226 233 240 254 272 290 304 324 337 343 345 342 347 349 351 354 354 353
264 202 198 56 321 349 188 303 314 296 315 346 161 231 137 173 169 204 213 211 200 202 206 212 215 219 223 225 229 237 250 266 281 304 323 330 336 339 339 343 347 350 348 350
212 168 94 22 352 315 129 222 37 279 194 274 234 234 199 213 228 208 214 203 201 203 206 212 215 221 223 224 228 233 246 258 271 288 304 319 325 334 332 334 341 343 345 346
141 228 73 90 264 66 292 68 218 179 294 279 227 274 257 206 224 205 209 207 205 204 207 211 214 219 221 222 228 230 238 244 252 272 288 304 315 325 330 335 337 339 339 342
177 249 112 185 203 213 155 203 186 315 283 287 308 266 163 185 198 202 210 209 205 203 208 209 213 219 221 222 228 229 234 237 240 255 271 292 309 321 326 330 333 337 339 340
149 286 224 155 86 331 301 272 250 233 180 246 310 273 151 171 191 210 209 209 209 209 208 209 212 217 221 222 223 226 231 235 235 244 259 278 295 311 321 327 330 334 338 341
174 182 251 178 176 187 240 201 181 84 135 219 225 263 108 209 225 224 218 212 210 208 207 208 210 216 219 221 223 224 229 231 235 241 252 266 287 304 317 324 330 335 340 342
176 194 232 264 334 111 200 197 209 213 221 223 233 274 243 224 227 223 222 217 212 211 210 210 212 216 220 220 221 223 227 231 232 239 248 258 277 297 309 317 329 337 341 343
229 240 217 260 240 210 251 217 192 207 231 236 276 274 276 278 241 231 226 215 210 210 211 214 215 215 219 220 221 223 225 229 231 236 245 258 272 287 300 315 324 333 340 342
197 216 180 266 211 222 255 246 232 229 249 261 274 278 278 275 256 250 228 214 214 215 217 219 219 218 219 221 222 225 226 229 233 237 243 253 267 283 300 310 317 326 334 338
184 185 183 268 140 242 261 243 217 205 221 225 244 257 271 249 242 239 231 223 223 222 220 221 223 221 221 221 222 225 226 229 233 237 241 249 259 276 291 302 307 314 325 330
180 185 186 268 236 255 300 99 197 217 243 218 260 271 275 274 278 273 245 232 230 227 225 225 225 224 222 221 222 222 225 229 233 236 239 244 254 265 280 290 297 305 313 320
275 183 181 238 231 302 294 203 177 191 292 229 251 281 294 263 286 277 260 251 245 240 236 231 230 226 222 221 221 221 224 228 233 235 239 243 249 259 271 280 285 293 301 310
144 258 242 167 227 252 57 144 180 152 289 354 283 320 306 220 258 23 331 272 246 241 235 229 227 223 222 222 222 223 226 228 232 235 238 242 248 256 266 274 281 288 295 302
169 201 219 220 249 278 254 145 150 241 5 21 2 348 199 224 255 294 323 327 289 238 234 228 223 224 222 221 223 225 228 231 233 235 238 243 249 255 264 271 278 284 293 301
176 170 190 185 209 260 138 114 199 8 357 347 341 334 311 301 297 288 291 293 290 257 233 227 226 223 220 221 224 227 230 233 233 236 240 244 249 255 262 269 276 284 291 298
231 219 204 205 211 43 198 230 203 315 316 317 321 328 319 305 295 303 298 279 278 268 242 234 230 225 224 224 225 230 232 232 233 236 241 245 249 254 261 267 274 280 288 296
227 197 234 235 246 253 248 261 265 276 307 328 326 325 319 311 311 291 295 291 276 267 253 241 232 229 228 227 228 232 233 233 234 238 241 244 249 254 259 266 270 277 285 292
271 157 207 245 268 272 273 276 340 302 310 314 317 332 347 347 349 329 298 289 286 270 258 247 240 237 235 232 232 233 234 233 234 238 241 244 248 252 257 263 269 277 282 287
190 209 221 257 279 288 290 271 304 302 304 318 316 321 318 314 315 321 320 308 283 275 263 253 246 241 238 236 233 234 234 236 237 239 241 243 247 252 256 262 269 273 279 287
Height
1551 1548 1548 1550 1555 1556 1555 1554 1554 1558 1566 1566 1560 1559 1560 1567 1570 1572 1573 1575 1576 1578 1579 1576 1575 1576 1575 1573 1573 1571 1570 1568 1565 1563 1561 1559 1557 1554 1551 1547 1543 1540 1536 1533
1550 1548 1555 1557 1559 1559 1557 1554 1552 1561 1566 1566 1558 1555 1555 1560 1564 1567 1568 1571 1572 1575 1574 1574 1574 1574 1572 1572 1570 1570 1568 1566 1563 1561 1559 1557 1555 1553 1550 1547 1544 1540 1536 1532
1548 1555 1558 1558 1558 1557 1556 1555 1556 1558 1563 1564 1561 1547 1552 1557 1561 1564 1564 1566 1569 1570 1572 1572 1572 1572 1569 1569 1569 1567 1566 1564 1562 1560 1558 1557 1555 1553 1551 1548 1543 1539 1536 1531
1552 1558 1558 1556 1556 1558 1555 1562 1562 1561 1558 1542 1559 1530 1542 1548 1553 1558 1558 1560 1563 1565 1567 1569 1569 1568 1567 1568 1566 1566 1564 1563 1561 1559 1557 1556 1554 1552 1550 1546 1543 1540 1536 1532
1554 1557 1558 1556 1557 1560 1559 1564 1563 1562 1556 1555 1552 1544 1530 1549 1540 1545 1550 1554 1557 1560 1563 1564 1564 1565 1566 1565 1565 1564 1563 1561 1560 1559 1557 1556 1554 1553 1550 1547 1543 1540 1536 1532
1558 1560 1559 1559 1563 1562 1564 1562 1563 1563 1555 1539 1551 1549 1524 1531 1532 1539 1543 1548 1552 1555 1558 1560 1562 1562 1563 1563 1562 1562 1562 1562 1560 1558 1557 1555 1553 1551 1548 1545 1543 1538 1536 1532
1558 1559 1561 1562 1559 1563 1562 1555 1539 1537 1535 1529 1558 1552 1517 1526 1535 1538 1540 1544 1548 1551 1554 1556 1558 1559 1560 1560 1561 1560 1560 1559 1558 1556 1555 1552 1551 1549 1546 1544 1541 1537 1534 1531
1545 1548 1561 1563 1560 1557 1557 1556 1547 1550 1535 1531 1561 1538 1518 1530 1536 1538 1540 1541 1544 1547 1549 1551 1553 1554 1555 1556 1556 1556 1556 1556 1555 1554 1552 1551 1549 1547 1545 1543 1539 1536 1533 1530
1547 1552 1564 1566 1565 1563 1559 1554 1562 1554 1563 1548 1526 1522 1528 1532 1533 1537 1537 1538 1540 1542 1545 1547 1549 1550 1551 1552 1552 1553 1554 1554 1553 1552 1550 1549 1547 1546 1544 1541 1539 1536 1532 1529
1546 1548 1564 1566 1567 1566 1562 1564 1554 1551 1557 1541 1517 1523 1507 1524 1522 1528 1532 1532 1535 1538 1540 1542 1544 1545 1547 1548 1549 1550 1551 1551 1550 1549 1549 1547 1546 1544 1543 1540 1537 1534 1531 1528
1547 1547 1562 1565 1562 1554 1563 1557 1561 1558 1556 1542 1533 1506 1502 1506 1512 1517 1523 1526 1529 1532 1535 1537 1539 1541 1542 1544 1545 1546 1547 1547 1546 1546 1545 1544 1543 1542 1539 1537 1535 1532 1529 1526
1547 1546 1546 1551 1562 1563 1561 1554 1551 1546 1553 1560 1558 1521 1510 1510 1513 1516 1519 1522 1524 1528 1530 1532 1534 1537 1538 1539 1540 1542 1543 1543 1543 1542 1542 1541 1540 1538 1536 1534 1532 1529 1526 1523
1546 1546 1543 1549 1560 1562 1558 1556 1556 1560 1557 1550 1545 1508 1513 1514 1514 1515 1516 1518 1520 1522 1525 1527 1529 1531 1533 1535 1537 1538 1539 1540 1540 1539 1539 1539 1537 1535 1534 1532 1530 1528 1525 1522
1545 1543 1536 1536 1536 1542 1550 1554 1556 1548 1549 1533 1525 1501 1501 1509 1509 1509 1510 1512 1514 1516 1518 1521 1523 1525 1528 1530 1532 1533 1535 1536 1536 1536 1536 1536 1535 1534 1533 1531 1529 1527 1524 1521
1545 1540 1542 1536 1539 1544 1539 1539 1549 1551 1528 1529 1503 1507 1496 1497 1500 1500 1502 1506 1508 1510 1512 1514 1516 1519 1522 1524 1527 1528 1530 1532 1532 1533 1534 1534 1533 1532 1531 1530 1527 1525 1522 1520
1546 1537 1545 1536 1539 1541 1541 1535 1532 1534 1532 1526 1523 1510 1494 1489 1492 1495 1496 1499 1500 1501 1503 1507 1510 1513 1515 1518 1521 1524 1526 1528 1529 1530 1531 1531 1530 1529 1529 1527 1526 1524 1521 1518
1540 1539 1541 1529 1538 1540 1532 1516 1516 1520 1520 1516 1512 1487 1485 1489 1490 1489 1489 1491 1491 1493 1496 1499 1502 1506 1510 1512 1516 1518 1522 1524 1525 1527 1528 1528 1527 1526 1526 1525 1523 1521 1519 1516
1535 1535 1540 1530 1533 1532 1501 1509 1508 1510 1503 1505 1496 1486 1489 1488 1487 1485 1483 1483 1484 1486 1489 1492 1496 1500 1504 1508 1510 1514 1517 1519 1521 1522 1523 1524 1523 1523 1522 1522 1521 1519 1516 1513
1536 1532 1540 1531 1524 1506 1497 1507 1507 1505 1490 1492 1493 1487 1486 1487 1485 1479 1478 1478 1478 1480 1483 1487 1491 1495 1499 1502 1506 1508 1511 1513 1515 1517 1518 1519 1519 1519 1519 1518 1517 1516 1513 1511
1536 1535 1531 1541 1531 1516 1491 1501 1503 1503 1491 1491 1491 1487 1486 1487 1480 1474 1475 1474 1475 1477 1479 1481 1486 1489 1493 1497 1501 1503 1506 1507 1508 1511 1513 1514 1514 1515 1515 1514 1513 1511 1510 1508
1532 1536 1533 1523 1523 1505 1492 1498 1503 1501 1492 1488 1488 1487 1487 1486 1481 1477 1476 1474 1473 1473 1476 1478 1480 1483 1487 1491 1495 1498 1501 1501 1505 1506 1508 1509 1509 1510 1510 1510 1509 1507 1506 1504
1513 1525 1526 1527 1528 1514 1493 1501 1500 1492 1489 1490 1488 1486 1484 1481 1477 1475 1474 1473 1472 1471 1472 1474 1476 1479 1482 1485 1488 1491 1494 1498 1500 1502 1502 1504 1505 1505 1506 1505 1505 1503 1501 1500
1508 1497 1500 1503 1493 1490 1491 1488 1488 1488 1489 1487 1486 1484 1481 1477 1474 1473 1470 1470 1469 1468 1469 1471 1473 1475 1477 1479 1482 1485 1488 1492 1494 1496 1498 1499 1500 1501 1501 1501 1500 1499 1498 1497
1497 1496 1495 1498 1485 1485 1484 1485 1486 1485 1485 1483 1481 1478 1476 1473 1471 1469 1469 1467 1466 1465 1465 1466 1468 1469 1471 1474 1478 1481 1483 1486 1488 1490 1492 1494 1495 1496 1496 1496 1496 1494 1493 1492
1487 1493 1488 1486 1485 1481 1480 1479 1480 1481 1480 1479 1476 1473 1472 1470 1468 1466 1465 1465 1463 1461 1461 1461 1461 1464 1466 1469 1472 1476 1478 1480 1482 1484 1486 1488 1489 1490 1491 1491 1490 1489 1488 1488
1486 1482 1481 1475 1477 1478 1476 1475 1474 1474 1472 1473 1471 1470 1468 1466 1464 1463 1461 1460 1458 1457 1456 1455 1456 1457 1459 1462 1466 1469 1471 1473 1476 1477 1479 1481 1483 1484 1485 1485 1485 1485 1484 1483